When you browse on this site, cookies collect data to enhance your experience and personalize the content and advertising you see.
Visit our Privacy Policy to learn more. By continuing to use the site, you agree to this use of cookies and data.
  • En España
  • Lista de países
  • Para 7 días
  • Temperatura del agua
  • Mapa Satelital
  • El tiempo en el mapa
  • Informadores
  • user-avatar
    Iniciar sesión

    Tiempo cada hora Viedma

    Hoy, 16 Diciembre, Domingo

    Tiempo Temperatura Precipitaciones Viento Presión Humedad
    00:00 +28°C° 0 mm 8 mps 750 mmHg 19%
    01:00 +27°C° 0 mm 8 mps 750 mmHg 22%
    02:00 +26°C° 0 mm 6 mps 749 mmHg 27%
    03:00 +26°C° 0 mm 6 mps 750 mmHg 30%
    04:00 +24°C° 0 mm 6 mps 750 mmHg 33%
    05:00 +24°C° 0 mm 6 mps 750 mmHg 36%
    06:00 +26°C° 0 mm 6 mps 750 mmHg 34%
    07:00 +28°C° 0 mm 6 mps 751 mmHg 32%
    08:00 +29°C° 0 mm 6 mps 751 mmHg 30%
    09:00 +30°C° 0 mm 6 mps 751 mmHg 29%
    10:00 +32°C° 0 mm 6 mps 751 mmHg 28%
    11:00 +32°C° 0 mm 6 mps 751 mmHg 27%
    12:00 +32°C° 0 mm 5 mps 751 mmHg 28%
    13:00 +32°C° 0 mm 5 mps 751 mmHg 28%
    14:00 +30°C° 0 mm 5 mps 750 mmHg 29%
    15:00 +28°C° 0 mm 6 mps 751 mmHg 34%
    16:00 +27°C° 0 mm 7 mps 751 mmHg 39%
    17:00 +24°C° 0 mm 8 mps 752 mmHg 44%
    18:00 +22°C° 0.1 mm 9 mps 753 mmHg 51%
    19:00 +19°C° 0.1 mm 9 mps 754 mmHg 57%
    20:00 +16°C° 0.1 mm 10 mps 756 mmHg 64%
    21:00 +16°C° 0 mm 9 mps 757 mmHg 65%
    22:00 +15°C° 0 mm 8 mps 758 mmHg 67%
    23:00 +15°C° 0 mm 8 mps 759 mmHg 68%

    Mañana, 17 Diciembre, Lunes

    Tiempo Temperatura Precipitaciones Viento Presión Humedad
    00:00 +15°C° 0.1 mm 7 mps 759 mmHg 68%
    01:00 +15°C° 0.1 mm 7 mps 760 mmHg 67%
    02:00 +15°C° 0.1 mm 6 mps 760 mmHg 67%
    03:00 +14°C° 0 mm 6 mps 761 mmHg 65%
    04:00 +14°C° 0 mm 6 mps 761 mmHg 62%
    05:00 +14°C° 0 mm 5 mps 762 mmHg 60%
    06:00 +15°C° 0 mm 5 mps 762 mmHg 53%
    07:00 +16°C° 0 mm 5 mps 763 mmHg 46%
    08:00 +17°C° 0 mm 5 mps 763 mmHg 39%
    09:00 +19°C° 0 mm 5 mps 763 mmHg 36%
    10:00 +20°C° 0 mm 5 mps 764 mmHg 32%
    11:00 +21°C° 0 mm 5 mps 764 mmHg 28%
    12:00 +21°C° 0 mm 5 mps 764 mmHg 27%
    13:00 +21°C° 0 mm 6 mps 763 mmHg 27%
    14:00 +22°C° 0 mm 6 mps 763 mmHg 27%
    15:00 +21°C° 0 mm 6 mps 763 mmHg 28%
    16:00 +21°C° 0 mm 6 mps 763 mmHg 30%
    17:00 +20°C° 0 mm 7 mps 763 mmHg 32%
    18:00 +18°C° 0 mm 7 mps 763 mmHg 36%
    19:00 +17°C° 0 mm 6 mps 763 mmHg 41%
    20:00 +16°C° 0 mm 6 mps 763 mmHg 46%
    21:00 +15°C° 0 mm 7 mps 763 mmHg 49%
    22:00 +15°C° 0 mm 7 mps 763 mmHg 52%
    23:00 +13°C° 0 mm 8 mps 763 mmHg 55%

    Pasado mañana, 18 Diciembre, Martes

    Tiempo Temperatura Precipitaciones Viento Presión Humedad
    00:00 +14°C° 0 mm 7 mps 762 mmHg 57%
    01:00 +14°C° 0 mm 7 mps 762 mmHg 58%
    02:00 +12°C° 0 mm 7 mps 762 mmHg 60%
    03:00 +12°C° 0 mm 7 mps 762 mmHg 62%
    04:00 +13°C° 0 mm 6 mps 762 mmHg 64%
    05:00 +13°C° 0 mm 6 mps 762 mmHg 66%
    06:00 +14°C° 0 mm 6 mps 762 mmHg 58%
    07:00 +16°C° 0 mm 6 mps 761 mmHg 49%
    08:00 +17°C° 0 mm 6 mps 761 mmHg 41%
    09:00 +21°C° 0 mm 6 mps 761 mmHg 34%
    10:00 +23°C° 0 mm 6 mps 761 mmHg 27%
    11:00 +27°C° 0 mm 6 mps 760 mmHg 20%
    12:00 +28°C° 0 mm 6 mps 760 mmHg 19%
    13:00 +29°C° 0 mm 6 mps 759 mmHg 18%
    14:00 +30°C° 0 mm 6 mps 758 mmHg 18%
    15:00 +30°C° 0 mm 6 mps 758 mmHg 18%
    16:00 +30°C° 0 mm 6 mps 757 mmHg 18%
    17:00 +30°C° 0 mm 7 mps 756 mmHg 18%
    18:00 +28°C° 0 mm 7 mps 756 mmHg 21%
    19:00 +27°C° 0 mm 8 mps 756 mmHg 24%
    20:00 +24°C° 0 mm 9 mps 755 mmHg 26%
    21:00 +23°C° 0 mm 9 mps 755 mmHg 30%
    22:00 +22°C° 0 mm 10 mps 755 mmHg 34%
    23:00 +21°C° 0 mm 10 mps 754 mmHg 37%

    19 Diciembre, Miércoles

    Tiempo Temperatura Precipitaciones Viento Presión Humedad
    00:00 +22°C° 0 mm 10 mps 754 mmHg 35%
    01:00 +22°C° 0 mm 9 mps 753 mmHg 33%
    02:00 +22°C° 0 mm 9 mps 753 mmHg 30%
    03:00 +22°C° 0 mm 9 mps 752 mmHg 31%
    04:00 +22°C° 0 mm 8 mps 752 mmHg 32%
    05:00 +21°C° 0 mm 8 mps 752 mmHg 33%
    06:00 +23°C° 0 mm 8 mps 752 mmHg 33%
    07:00 +24°C° 0 mm 7 mps 752 mmHg 33%
    08:00 +26°C° 0 mm 7 mps 752 mmHg 32%
    09:00 +28°C° 0 mm 7 mps 751 mmHg 30%
    10:00 +30°C° 0 mm 6 mps 751 mmHg 28%
    11:00 +33°C° 0 mm 6 mps 751 mmHg 26%
    12:00 +32°C° 0 mm 6 mps 750 mmHg 29%
    13:00 +30°C° 0 mm 6 mps 750 mmHg 32%
    14:00 +29°C° 0 mm 7 mps 749 mmHg 35%
    15:00 +28°C° 0.4 mm 7 mps 749 mmHg 40%
    16:00 +27°C° 0.4 mm 8 mps 749 mmHg 44%
    17:00 +24°C° 0.4 mm 9 mps 749 mmHg 49%
    18:00 +23°C° 0.1 mm 8 mps 750 mmHg 53%
    19:00 +22°C° 0.1 mm 8 mps 751 mmHg 57%
    20:00 +21°C° 0.1 mm 8 mps 751 mmHg 61%
    21:00 +20°C° 0 mm 7 mps 752 mmHg 62%
    22:00 +20°C° 0 mm 6 mps 753 mmHg 62%
    23:00 +19°C° 0 mm 6 mps 753 mmHg 63%

    20 Diciembre, Jueves

    Tiempo Temperatura Precipitaciones Viento Presión Humedad
    00:00 +19°C° 0.1 mm 6 mps 753 mmHg 65%
    01:00 +17°C° 0.1 mm 6 mps 753 mmHg 66%
    02:00 +17°C° 0.1 mm 6 mps 753 mmHg 68%
    03:00 +16°C° 0 mm 7 mps 754 mmHg 69%
    04:00 +16°C° 0 mm 7 mps 754 mmHg 70%
    05:00 +16°C° 0 mm 8 mps 754 mmHg 72%
    06:00 +16°C° 0 mm 8 mps 754 mmHg 68%
    07:00 +17°C° 0 mm 9 mps 754 mmHg 64%
    08:00 +18°C° 0 mm 10 mps 755 mmHg 61%
    09:00 +18°C° 0 mm 10 mps 754 mmHg 60%
    10:00 +18°C° 0 mm 10 mps 754 mmHg 60%
    11:00 +18°C° 0 mm 9 mps 754 mmHg 60%
    12:00 +19°C° 0 mm 9 mps 754 mmHg 57%
    13:00 +21°C° 0 mm 8 mps 754 mmHg 55%
    14:00 +21°C° 0 mm 8 mps 753 mmHg 53%
    15:00 +21°C° 0 mm 7 mps 753 mmHg 52%
    16:00 +21°C° 0 mm 6 mps 753 mmHg 52%
    17:00 +21°C° 0 mm 5 mps 753 mmHg 51%
    18:00 +20°C° 0 mm 4 mps 752 mmHg 56%
    19:00 +19°C° 0 mm 3 mps 752 mmHg 60%
    20:00 +18°C° 0 mm 2 mps 752 mmHg 65%
    21:00 +18°C° 0 mm 3 mps 752 mmHg 66%
    22:00 +17°C° 0 mm 3 mps 752 mmHg 68%
    23:00 +17°C° 0 mm 3 mps 752 mmHg 70%

    21 Diciembre, Viernes

    Tiempo Temperatura Precipitaciones Viento Presión Humedad
    00:00 +17°C° 0 mm 4 mps 751 mmHg 69%
    01:00 +17°C° 0 mm 4 mps 751 mmHg 68%
    02:00 +16°C° 0 mm 5 mps 750 mmHg 67%
    03:00 +16°C° 0 mm 5 mps 751 mmHg 66%
    04:00 +17°C° 0 mm 4 mps 751 mmHg 65%
    05:00 +17°C° 0 mm 4 mps 751 mmHg 64%
    06:00 +19°C° 0 mm 5 mps 751 mmHg 56%
    07:00 +21°C° 0 mm 6 mps 751 mmHg 47%
    08:00 +23°C° 0 mm 7 mps 751 mmHg 38%
    09:00 +24°C° 0 mm 7 mps 751 mmHg 36%
    10:00 +26°C° 0 mm 7 mps 751 mmHg 33%
    11:00 +27°C° 0 mm 7 mps 751 mmHg 31%
    12:00 +27°C° 0 mm 7 mps 751 mmHg 30%
    13:00 +27°C° 0 mm 7 mps 751 mmHg 29%
    14:00 +28°C° 0 mm 7 mps 751 mmHg 28%
    15:00 +27°C° 0 mm 7 mps 751 mmHg 29%
    16:00 +26°C° 0 mm 6 mps 751 mmHg 30%
    17:00 +26°C° 0 mm 5 mps 751 mmHg 31%
    18:00 +25°C° 0 mm 4 mps 751 mmHg 35%
    19:00 +22°C° 0 mm 3 mps 752 mmHg 39%
    20:00 +21°C° 0 mm 2 mps 752 mmHg 43%
    21:00 +21°C° 0 mm 2 mps 752 mmHg 44%
    22:00 +20°C° 0 mm 2 mps 752 mmHg 45%
    23:00 +19°C° 0 mm 2 mps 752 mmHg 46%
    Mostrar más